Weather History for Little Rock AFB, AR

Change the Weather History Date:

Sunday, November 25, 2012

  Actual Average Record
Temperature  
Mean Temperature 44 °F -  
Max Temperature 62 °F 58 °F 80 °F (1998)
Min Temperature 27 °F 37 °F 23 °F (1975)
Degree Days  
Heating Degree Days 20    
Moisture  
Dew Point 31 °F    
Average Humidity 65    
Maximum Humidity 90    
Minimum Humidity 33    
Precipitation  
Precipitation 0.00 in - - ()
Sea Level Pressure  
Sea Level Pressure 30.05 in    
Wind  
Wind Speed 3 mph (SSE)    
Max Wind Speed 10 mph    
Max Gust Speed 16 mph    
Visibility 10 miles    
Events      
Averages and records for this station are not official NWS values.
T = Trace of Precipitation, MM = Missing Value Source: NWS Daily Summary

Daily Weather History Graph

Daily Weather History Graph

Search for Another Location

Airport:

Trip Planner

Search our weather history database for the weather conditions in past years. The results will help you decide how hot, cold, wet, or windy it might be!

Date:

Astronomy

Nov. 25, 2012 Rise Set
Actual Time 6:52 AM CST 4:58 PM CST
Civil Twilight 6:25 AM CST 5:25 PM CST
Nautical Twilight 5:54 AM CST 5:56 PM CST
Astronomical Twilight 5:24 AM CST 6:27 PM CST
Moon 3:11 PM CST (11/25) 4:11 AM CST (11/25)
Length of Visible Light 11h 00m
Length of Day
10h 05m
Waxing Gibbous, 93% of the Moon is Illuminated
Nov 25
Waxing Gibbous
Nov 28
Full
Dec 6
Last Quarter
Dec 13
New
Dec 19
First Quarter

Hourly Weather History & Observations

Time (CST) Temp. Windchill Dew Point Humidity Pressure Visibility Wind Dir Wind Speed Gust Speed Precip Events Conditions
12:55 AM 35.2 °F 32.4 °F 25.7 °F 68% 30.14 in 10.0 mi South 3.5 mph - N/A   Clear
1:55 AM 31.5 °F - 25.9 °F 80% 30.13 in 10.0 mi Calm Calm - N/A   Clear
2:55 AM 28.9 °F - 24.8 °F 84% 30.12 in 10.0 mi Calm Calm - N/A   Clear
3:55 AM 27.7 °F - 25.0 °F 90% 30.11 in 10.0 mi Calm Calm - N/A   Clear
4:55 AM 27.0 °F - 24.3 °F 90% 30.10 in 10.0 mi Calm Calm - N/A   Clear
5:55 AM 27.1 °F - 24.6 °F 90% 30.09 in 10.0 mi Calm Calm - N/A   Clear
6:55 AM 27.5 °F - 24.8 °F 90% 30.11 in 10.0 mi Calm Calm - N/A   Clear
7:55 AM 30.7 °F - 27.3 °F 87% 30.14 in 10.0 mi Calm Calm - N/A   Clear
8:55 AM 39.7 °F 34.9 °F 28.6 °F 64% 30.13 in 10.0 mi SSW 6.9 mph - N/A   Clear
9:55 AM 45.7 °F 40.6 °F 30.2 °F 55% 30.13 in 10.0 mi South 10.4 mph 16.1 mph N/A   Clear
10:55 AM 51.3 °F - 31.5 °F 47% 30.10 in 10.0 mi South 8.1 mph - N/A   Clear
11:55 AM 55.8 °F - 31.8 °F 40% 30.06 in 10.0 mi SSW 9.2 mph - N/A   Clear
12:55 PM 59.2 °F - 32.2 °F 36% 30.03 in 10.0 mi Variable 6.9 mph - N/A   Clear
1:55 PM 61.9 °F - 32.2 °F 33% 29.99 in 10.0 mi South 8.1 mph - N/A   Clear
2:55 PM 62.1 °F - 33.1 °F 34% 29.98 in 10.0 mi SSE 9.2 mph - N/A   Clear
3:55 PM 62.1 °F - 33.3 °F 34% 29.97 in 10.0 mi SSE 10.4 mph - N/A   Clear
4:55 PM 59.0 °F - 34.2 °F 39% 29.96 in 10.0 mi East 3.5 mph - N/A   Clear
5:55 PM 54.7 °F - 34.7 °F 47% 29.96 in 10.0 mi SE 4.6 mph - N/A   Clear
6:55 PM 53.2 °F - 35.8 °F 52% 29.98 in 10.0 mi SSE 3.5 mph - N/A   Clear
7:55 PM 45.1 °F - 36.1 °F 71% 29.99 in 10.0 mi Calm Calm - N/A   Clear
8:55 PM 41.7 °F - 35.8 °F 79% 29.99 in 10.0 mi Calm Calm - N/A   Clear
9:55 PM 40.3 °F - 35.6 °F 83% 30.01 in 10.0 mi Calm Calm - N/A   Clear
10:55 PM 38.5 °F - 34.9 °F 87% 30.02 in 10.0 mi Calm Calm - N/A   Clear
11:55 PM 39.6 °F 35.4 °F 35.4 °F 85% 30.01 in 10.0 mi SSE 5.8 mph - N/A   Clear